[[{"header":{"parameterUnit":"m.s-1","parameterCategory":1,"la1":30.2991,"la2":30.254,"lo1":-89.0895,"lo2":-89.0444,"dy":0.0017,"dx":0.0017,"nx":28,"ny":28,"refTime":"2024-08-31T21:00:00:Z","depth":0,"parameterNumber":2,"parameterNumberName":"U-component_of_WINDS"},"data":[0,0,0,0,0,0,0,0,0,0,0,0,0,0,0,0,0,0,0,0,0,0,0,0,0,0,0,0,0,0,0,0,0,0,0,0,0,0,0,0,0,0,0,0,0,0,0,0,0,0,0,0,0,0,0,0,0,0,-2.5004,-2.5004,0,-2.4991,-2.4991,-2.4991,-2.486,-2.4856,-2.4853,-2.485,-2.4839,-2.4841,-2.4844,0,0,0,0,0,0,0,0,0,0,0,0,0,-2.4917,-2.4919,-2.5004,-2.5004,-2.5004,-2.4991,-2.4991,-2.4991,-2.486,-2.4856,-2.4852,-2.4849,-2.4838,-2.4841,-2.4844,0,0,0,0,0,0,0,0,0,0,0,0,0,-2.4935,-2.492,-2.5004,-2.4937,-2.4931,-2.4991,-2.4991,-2.4991,-2.4861,-2.4856,-2.4851,-2.4847,-2.4837,-2.4841,-2.4845,-2.4969,0,0,-2.4857,-2.4859,0,0,0,0,0,0,0,0,-2.4934,-2.4938,-2.4947,-2.4942,-2.4935,-2.4922,-2.4956,-2.4983,-2.4862,-2.4888,-2.485,-2.4844,-2.487,-2.4872,-2.488,-2.4968,-2.4968,-2.4858,-2.486,-2.4862,-2.4863,0,0,0,0,0,0,0,-2.4933,-2.4938,-2.4999,-2.4947,-2.494,-2.4908,-2.4905,-2.496,-2.4907,-2.4885,-2.4876,-2.4876,-2.4866,-2.4876,-2.4879,-2.4967,-2.4858,-2.4861,-2.4864,-2.4865,-2.5156,-2.5161,0,0,0,0,0,0,-2.4941,-2.4938,-2.4999,-2.4998,-2.4922,-2.4914,-2.491,-2.4931,-2.4906,-2.4897,-2.488,-2.487,-2.4872,-2.4874,-2.4878,-2.5021,-2.4862,-2.4866,-2.4868,-2.5151,-2.5158,-2.5163,0,0,0,0,0,0,-2.4939,-2.4948,-2.5,-2.4965,-2.497,-2.492,-2.4945,-2.4933,-2.4943,-2.4902,-2.4892,-2.49,-2.4868,-2.4872,-2.4947,-2.5019,-2.4868,-2.4871,-2.5145,-2.5153,-2.516,-2.5309,0,0,0,0,0,0,-2.4937,-2.4948,-2.4994,-2.4968,-2.4972,-2.5069,-2.4949,-2.4937,-2.4951,-2.4937,-2.4918,-2.491,-2.4864,-2.4941,-2.4951,-2.5022,-2.4875,-2.5138,-2.5149,-2.5158,-2.5298,-2.5321,-2.5341,0,0,0,0,0,-2.4935,-2.5037,-2.4997,-2.5005,-2.5029,-2.5074,-2.5076,-2.5021,-2.4957,-2.5003,-2.4977,-2.4911,-2.5009,-2.495,-2.496,-2.5033,-2.5134,-2.5146,-2.5157,-2.5288,-2.5317,-2.5341,0,0,0,0,0,0,-2.5074,-2.5032,-2.4988,-2.5084,-2.5084,-2.5051,-2.5108,-2.5053,-2.5071,-2.5057,-2.4988,-2.4985,-2.5071,-2.5059,-2.4994,-2.5151,-2.506,-2.5074,-2.5156,-2.5183,-2.5205,-2.5206,-2.4878,0,0,0,0,0,-2.5116,-2.5156,-2.5117,-2.5206,-2.5208,-2.5159,-2.5176,-2.5133,-2.513,-2.5129,-2.5107,-2.5107,-2.5138,-2.516,-2.5185,-2.5295,-2.5289,-2.535,-2.5372,-2.539,-2.5404,-2.5461,-2.5488,-2.5202,-2.5202,-2.5202,0,0,-2.5204,-2.5185,-2.5215,-2.5233,-2.5228,-2.527,-2.5159,-2.5209,-2.524,-2.5136,-2.5206,-2.519,-2.5185,-2.5278,-2.5318,-2.5271,-2.5481,-2.5405,-2.542,-2.5424,-2.5476,-2.5503,-2.5527,-2.521,-2.5209,-2.5207,0,0,-2.5384,-2.5375,-2.5447,-2.5444,-2.5436,-2.5403,-2.542,-2.5397,-2.5382,-2.545,-2.5373,-2.541,-2.5464,-2.5463,-2.5471,-2.5651,-2.5591,-2.5661,-2.5776,-2.5832,-2.5855,-2.5874,-2.5939,-2.5963,-2.5674,-2.5675,-2.5675,0,-2.5494,-2.5555,-2.5492,-2.5547,-2.5558,-2.5465,-2.5538,-2.5538,-2.554,-2.555,-2.5497,-2.5563,-2.5553,-2.5645,-2.5689,-2.5697,-2.5716,-2.5663,-2.5856,-2.5875,-2.5893,-2.5954,-2.5978,-2.5683,-2.5682,-2.5682,-2.5681,0,-2.569,-2.5733,-2.5793,-2.5797,-2.5814,-2.5878,-2.5826,-2.5851,-2.5806,-2.5779,-2.5849,-2.5834,-2.5855,-2.5874,-2.5831,-2.5959,-2.5931,-2.5868,-2.5775,-2.593,-2.5986,-2.6009,-2.5696,-2.5693,-2.569,-2.5688,0,0,-2.596,-2.5927,-2.595,-2.595,-2.5935,-2.5967,-2.6027,-2.6047,-2.607,-2.6074,-2.6123,-2.6171,-2.6113,-2.6121,-2.6078,-2.6127,-2.6272,-2.6058,-2.6057,-2.6099,-2.6412,-2.646,-2.6488,-2.6231,-2.6236,-2.6239,-2.6413,0,-2.6134,-2.6234,-2.6179,-2.6287,-2.6326,-2.6238,-2.629,-2.6287,-2.6263,-2.6293,-2.6265,-2.6301,-2.6221,-2.6226,-2.6271,-2.6245,-2.6334,-2.6231,-2.6277,-2.6279,-2.6282,-2.6517,-2.6567,-2.6732,-2.6434,-2.6438,-2.6441,0,-2.6351,-2.6364,-2.6476,-2.6452,-2.6467,-2.6515,-2.6528,-2.6558,-2.6552,-2.6531,-2.654,-2.6484,-2.6542,-2.6449,-2.6528,-2.6459,-2.6475,-2.6465,-2.647,-2.6472,-2.637,-2.6527,-2.6784,-2.6809,-2.6475,-2.6472,-2.647,0,-2.6537,-2.6582,-2.6654,-2.6657,-2.6632,-2.6668,-2.6659,-2.6648,-2.6663,-2.6676,-2.6685,-2.6704,-2.6715,-2.6732,-2.6683,-2.662,-2.6768,-2.6671,-2.6753,-2.6754,-2.6789,-2.6787,-2.7052,-2.6798,-2.6798,-2.6797,-2.6797,0,-2.6738,-2.681,-2.6738,-2.6783,-2.686,-2.6797,-2.6876,-2.6857,-2.6849,-2.6889,-2.6814,-2.6853,-2.6786,-2.6818,-2.6781,-2.6852,-2.6857,-2.6842,-2.6831,-2.6849,-2.6851,-2.6859,-2.6846,-2.6804,-2.6802,-2.6801,-2.68,0,-2.696,-2.6914,-2.6987,-2.6956,-2.695,-2.7009,-2.6983,-2.7024,-2.6994,-2.7045,-2.7054,-2.7007,-2.7042,-2.6994,-2.7024,-2.6999,-2.7097,-2.7068,-2.7099,-2.7091,-2.7175,-2.7168,-2.7455,-2.7489,-2.7213,-2.7215,-2.7218,0,-2.7091,-2.7144,-2.7119,-2.714,-2.7135,-2.717,-2.7185,-2.7124,-2.7143,-2.7141,-2.7182,-2.721,-2.7229,-2.7288,-2.7258,-2.728,-2.7252,-2.7351,-2.7255,-2.7272,-2.7254,-2.7252,-2.7257,-2.7371,-2.7374,-2.7377,-2.7379,0,-2.733,-2.7304,-2.7328,-2.7345,-2.7365,-2.7376,-2.738,-2.7402,-2.7338,-2.7363,-2.7397,-2.7412,-2.7442,-2.7472,-2.7486,-2.7477,-2.7419,-2.741,-2.743,-2.7449,-2.7464,-2.7458,-2.7153,-2.7404,-2.7401,-2.7399,-2.7398,-2.7397,-2.751,-2.7553,-2.7542,-2.7572,-2.7569,-2.7575,-2.7611,-2.7585,-2.7612,-2.7632,-2.7594,-2.7638,-2.763,-2.7643,-2.7641,-2.7675,-2.7632,-2.7661,-2.7668,-2.7677,-2.769,-2.7459,-2.7677,-2.7676,-2.7676,-2.7675,-2.7674,0,-2.7745,-2.7733,-2.7761,-2.777,-2.7793,-2.7734,-2.7737,-2.7761,-2.78,-2.7797,-2.7817,-2.7857,-2.7884,-2.7856,-2.7878,-2.791,-2.7884,-2.7918,-2.7916,-2.7915,-2.7727,-2.7707,-2.7939,-2.7939,-2.7939,-2.7939,-2.7939,-2.7939,-2.787,-2.794,-2.7913,-2.7981,-2.7968,-2.801,-2.8016,-2.8022,-2.8019,-2.8066,-2.8088,-2.8069,-2.8056,-2.8077,-2.81,-2.8091,-2.8103,-2.8147,-2.8129,-2.7954,-2.7928,-2.7903,-2.7885,-2.815,-2.815,-2.8314,-2.8315,-2.8316]},{"header":{"parameterUnit":"m.s-1","parameterCategory":1,"la1":30.2991,"la2":30.254,"lo1":-89.0895,"lo2":-89.0444,"dy":0.0017,"dx":0.0017,"nx":28,"ny":28,"refTime":"2024-08-31T21:00:00:Z","depth":0,"parameterNumber":3,"parameterNumberName":"V-component_of_WINDS"},"data":[0,0,0,0,0,0,0,0,0,0,0,0,0,0,0,0,0,0,0,0,0,0,0,0,0,0,0,0,0,0,0,0,0,0,0,0,0,0,0,0,0,0,0,0,0,0,0,0,0,0,0,0,0,0,0,0,0,0,-2.0566,-2.0565,0,-2.0503,-2.0503,-2.0502,-2.0474,-2.0474,-2.0474,-2.0474,-2.0407,-2.0405,-2.0403,0,0,0,0,0,0,0,0,0,0,0,0,0,-2.0657,-2.0656,-2.0566,-2.0565,-2.0565,-2.0503,-2.0503,-2.0502,-2.0474,-2.0474,-2.0474,-2.0474,-2.0407,-2.0405,-2.0403,0,0,0,0,0,0,0,0,0,0,0,0,0,-2.0608,-2.0655,-2.0566,-2.0543,-2.0541,-2.0504,-2.0503,-2.0501,-2.0474,-2.0474,-2.0474,-2.0474,-2.0408,-2.0405,-2.0403,-2.0383,0,0,-2.0394,-2.0393,0,0,0,0,0,0,0,0,-2.0611,-2.0605,-2.0548,-2.0545,-2.0542,-2.0497,-2.051,-2.0462,-2.0474,-2.0499,-2.0474,-2.0474,-2.0436,-2.0431,-2.0419,-2.038,-2.0377,-2.0394,-2.0392,-2.0391,-2.039,0,0,0,0,0,0,0,-2.0614,-2.0607,-2.0541,-2.0547,-2.0543,-2.0535,-2.0528,-2.0501,-2.0468,-2.0497,-2.0495,-2.0488,-2.0435,-2.0422,-2.0417,-2.0376,-2.0394,-2.0391,-2.039,-2.0389,-2.0313,-2.0312,0,0,0,0,0,0,-2.0622,-2.061,-2.0543,-2.0539,-2.0578,-2.0533,-2.0525,-2.0511,-2.0468,-2.0462,-2.0488,-2.0487,-2.0427,-2.0421,-2.0415,-2.0386,-2.0391,-2.0388,-2.0387,-2.0313,-2.0313,-2.0312,0,0,0,0,0,0,-2.0624,-2.0616,-2.0546,-2.0574,-2.0565,-2.0531,-2.0515,-2.051,-2.0497,-2.0461,-2.0455,-2.0481,-2.0426,-2.0419,-2.039,-2.0384,-2.0387,-2.0384,-2.0313,-2.0313,-2.0313,-2.0331,0,0,0,0,0,0,-2.0627,-2.0617,-2.0611,-2.0574,-2.0563,-2.0524,-2.0515,-2.0508,-2.0492,-2.049,-2.0453,-2.0447,-2.0426,-2.0395,-2.0387,-2.038,-2.0382,-2.0314,-2.0313,-2.0313,-2.0331,-2.0331,-2.0331,0,0,0,0,0,-2.063,-2.0619,-2.0611,-2.0603,-2.0555,-2.0524,-2.0517,-2.0494,-2.0492,-2.0484,-2.046,-2.0448,-2.0386,-2.0392,-2.0384,-2.0375,-2.0314,-2.0313,-2.0313,-2.033,-2.0331,-2.0331,0,0,0,0,0,0,-2.0655,-2.0614,-2.0604,-2.0581,-2.0556,-2.0519,-2.0509,-2.0496,-2.0471,-2.047,-2.0441,-2.0433,-2.0406,-2.0388,-2.0396,-2.0352,-2.0349,-2.0346,-2.0365,-2.0365,-2.0365,-2.037,-2.038,0,0,0,0,0,-2.0658,-2.0637,-2.0602,-2.0584,-2.0572,-2.0543,-2.0528,-2.0513,-2.0485,-2.0475,-2.0449,-2.0422,-2.0396,-2.038,-2.0354,-2.0328,-2.0318,-2.0317,-2.0318,-2.0318,-2.0316,-2.0298,-2.0296,-2.031,-2.031,-2.031,0,0,-2.0663,-2.0638,-2.0627,-2.0588,-2.0568,-2.0545,-2.0534,-2.0512,-2.0494,-2.0471,-2.0442,-2.0422,-2.039,-2.0362,-2.0348,-2.0346,-2.031,-2.0317,-2.0318,-2.0315,-2.0297,-2.0296,-2.0294,-2.0309,-2.031,-2.031,0,0,-2.0661,-2.0641,-2.0623,-2.0602,-2.057,-2.055,-2.0545,-2.051,-2.0496,-2.0467,-2.0448,-2.0426,-2.0382,-2.0359,-2.0342,-2.0328,-2.0314,-2.032,-2.0322,-2.0304,-2.0303,-2.0302,-2.0295,-2.0293,-2.0319,-2.0319,-2.0319,0,-2.0672,-2.0639,-2.0615,-2.0593,-2.0575,-2.0553,-2.0533,-2.0514,-2.0475,-2.0462,-2.046,-2.0403,-2.038,-2.0345,-2.0341,-2.0329,-2.0321,-2.0324,-2.0305,-2.0304,-2.0303,-2.0295,-2.0293,-2.0319,-2.0319,-2.0319,-2.0319,0,-2.0652,-2.0629,-2.0618,-2.0581,-2.0562,-2.0541,-2.0512,-2.0496,-2.0481,-2.046,-2.0429,-2.04,-2.0367,-2.0358,-2.0343,-2.0319,-2.0318,-2.0311,-2.0307,-2.0302,-2.0295,-2.0292,-2.0321,-2.032,-2.032,-2.032,0,0,-2.0665,-2.0613,-2.061,-2.0591,-2.0553,-2.0534,-2.0511,-2.0479,-2.0464,-2.0437,-2.0415,-2.0378,-2.037,-2.035,-2.0333,-2.0317,-2.0305,-2.0312,-2.031,-2.031,-2.0273,-2.0278,-2.0275,-2.0296,-2.0295,-2.0295,-2.0275,0,-2.0656,-2.0615,-2.0592,-2.0559,-2.0536,-2.0514,-2.0493,-2.0466,-2.0445,-2.0421,-2.0398,-2.0371,-2.0364,-2.0352,-2.0336,-2.031,-2.0297,-2.0311,-2.0273,-2.0272,-2.0281,-2.0271,-2.0277,-2.026,-2.0272,-2.0272,-2.0271,0,-2.0642,-2.0615,-2.058,-2.0542,-2.0531,-2.0514,-2.048,-2.0459,-2.0426,-2.0412,-2.0389,-2.0371,-2.0343,-2.0341,-2.0301,-2.0311,-2.0294,-2.0278,-2.0277,-2.0271,-2.0271,-2.0264,-2.0254,-2.0251,-2.0267,-2.0267,-2.0268,0,-2.0652,-2.0607,-2.058,-2.0565,-2.0521,-2.0508,-2.0489,-2.0457,-2.0438,-2.0409,-2.0395,-2.0363,-2.0345,-2.0319,-2.0292,-2.0294,-2.0253,-2.025,-2.0238,-2.0239,-2.023,-2.0231,-2.0216,-2.0222,-2.0222,-2.0222,-2.0222,0,-2.0644,-2.0623,-2.0584,-2.0567,-2.0542,-2.0514,-2.0489,-2.0468,-2.0439,-2.0416,-2.0394,-2.0372,-2.0338,-2.0312,-2.029,-2.0258,-2.025,-2.0236,-2.0231,-2.0237,-2.0239,-2.0225,-2.0225,-2.0221,-2.0221,-2.0221,-2.0222,0,-2.0652,-2.0625,-2.0593,-2.0553,-2.0542,-2.0525,-2.049,-2.0471,-2.0449,-2.0419,-2.0411,-2.0375,-2.0342,-2.0312,-2.0269,-2.0254,-2.0221,-2.0214,-2.0232,-2.0228,-2.0217,-2.0218,-2.0191,-2.0185,-2.0197,-2.0197,-2.0197,0,-2.0648,-2.0632,-2.0589,-2.0572,-2.0553,-2.0527,-2.0507,-2.0478,-2.0458,-2.0418,-2.0404,-2.0369,-2.034,-2.0288,-2.0257,-2.0223,-2.0214,-2.0207,-2.0209,-2.0215,-2.0212,-2.0212,-2.0209,-2.0207,-2.0207,-2.0207,-2.0207,0,-2.0644,-2.0631,-2.0604,-2.0571,-2.0548,-2.0521,-2.0493,-2.048,-2.0445,-2.0424,-2.039,-2.0367,-2.0322,-2.0287,-2.0248,-2.0226,-2.021,-2.0207,-2.0202,-2.0208,-2.0218,-2.021,-2.023,-2.0208,-2.0208,-2.0208,-2.0208,-2.0208,-2.0645,-2.0627,-2.0594,-2.0564,-2.054,-2.0513,-2.0493,-2.0467,-2.0439,-2.04,-2.0384,-2.0349,-2.0314,-2.0261,-2.0239,-2.0209,-2.0206,-2.02,-2.0198,-2.0196,-2.0196,-2.0224,-2.0202,-2.0202,-2.0202,-2.0202,-2.0202,0,-2.0637,-2.0614,-2.0587,-2.0548,-2.0523,-2.0511,-2.0478,-2.0458,-2.0428,-2.0397,-2.0368,-2.0327,-2.0293,-2.0258,-2.0221,-2.0204,-2.0195,-2.0194,-2.0195,-2.0189,-2.0202,-2.0209,-2.0202,-2.0202,-2.0202,-2.0202,-2.0202,-2.0202,-2.0631,-2.06,-2.0583,-2.0539,-2.0515,-2.0481,-2.0463,-2.0437,-2.0412,-2.0368,-2.0339,-2.0317,-2.0284,-2.0243,-2.021,-2.02,-2.0186,-2.0188,-2.0176,-2.0188,-2.0189,-2.0189,-2.0195,-2.0185,-2.0185,-2.0165,-2.0165,-2.0165]}]]